Latest Weather Observations for Wattamolla

IDN60801

Issued at 4:35 pm EST Saturday 26 July 2014 (issued every 30 minutes, with the page automatically refreshed every 10 minutes)

About weather observations | Map of weather stations | Latest weather observations for NSW | Other Formats
Station Details ID: 066208 Name: WATTAMOLLA AWS Lat: -34.14 Lon: 151.12 Height: 44.0 m
Data from the previous 72 hours. | See also: Recent months for locations in New South Wales
Date/Time
EST
Temp
°C
App
Temp
°C
Dew
Point
Rel
Hum
%
Delta-T
°C
Wind Press
QNH
hPa
Press
MSL
hPa
Rain
since 9 am
mm
Dir
 
Spd
km/h
Gust
km/h
Spd
kts
Gust
kts
26/04:30pm - - - - - NW 13 19 7 10 - - -
26/04:00pm - - - - - SE 6 9 3 5 - - -
26/03:30pm - - - - - ESE 6 7 3 4 - - -
26/03:00pm - - - - - S 6 7 3 4 - - -
26/02:30pm - - - - - S 33 52 18 28 - - -
26/02:22pm - - - - - S 28 52 15 28 - - -
26/02:00pm - - - - - W 13 19 7 10 - - -
26/01:30pm - - - - - WNW 15 20 8 11 - - -
26/01:00pm - - - - - NW 17 28 9 15 - - -
26/12:30pm - - - - - NW 24 35 13 19 - - -
26/12:00pm - - - - - NW 24 32 13 17 - - -
26/11:30am - - - - - W 9 19 5 10 - - -
26/11:00am - - - - - NW 11 17 6 9 - - -
26/10:30am - - - - - NW 6 11 3 6 - - -
26/10:00am - - - - - N 17 26 9 14 - - -
26/09:30am - - - - - N 17 26 9 14 - - -
26/09:00am - - - - - N 15 19 8 10 - - -
26/08:30am - - - - - NNW 13 15 7 8 - - -
26/08:00am - - - - - NNW 11 13 6 7 - - -
26/07:30am - - - - - NW 13 17 7 9 - - -
26/07:00am - - - - - NW 15 17 8 9 - - -
26/06:30am - - - - - NNW 15 19 8 10 - - -
26/06:00am - - - - - NW 17 20 9 11 - - -
26/05:30am - - - - - NW 15 17 8 9 - - -
26/05:00am - - - - - W 19 22 10 12 - - -
26/04:30am - - - - - WNW 17 20 9 11 - - -
26/04:00am - - - - - NW 17 22 9 12 - - -
26/03:30am - - - - - NW 20 26 11 14 - - -
26/03:00am - - - - - NNW 15 19 8 10 - - -
26/02:30am - - - - - NW 19 26 10 14 - - -
26/02:00am - - - - - NW 24 30 13 16 - - -
26/01:30am - - - - - NNW 17 24 9 13 - - -
26/01:00am - - - - - NNW 13 17 7 9 - - -
26/12:30am - - - - - NNW 13 19 7 10 - - -
26/12:00am - - - - - N 13 17 7 9 - - -
 
Date/Time
EST
Temp
°C
App
Temp
°C
Dew
Point
Rel
Hum
%
Delta-T
°C
Wind Press
QNH
hPa
Press
MSL
hPa
Rain
since 9 am
mm
Dir
 
Spd
km/h
Gust
km/h
Spd
kts
Gust
kts
25/11:30pm - - - - - N 15 17 8 9 - - -
25/11:00pm - - - - - N 17 19 9 10 - - -
25/10:30pm - - - - - N 15 19 8 10 - - -
25/10:00pm - - - - - N 17 19 9 10 - - -
25/09:30pm - - - - - N 13 15 7 8 - - -
25/09:00pm - - - - - N 15 19 8 10 - - -
25/08:30pm - - - - - N 13 19 7 10 - - -
25/08:00pm - - - - - N 15 20 8 11 - - -
25/07:30pm - - - - - N 17 24 9 13 - - -
25/07:00pm - - - - - N 19 28 10 15 - - -
25/06:30pm - - - - - N 19 26 10 14 - - -
25/06:00pm - - - - - N 20 28 11 15 - - -
25/05:30pm - - - - - N 20 32 11 17 - - -
25/05:00pm - - - - - N 19 30 10 16 - - -
25/04:30pm - - - - - N 22 28 12 15 - - -
25/04:00pm - - - - - N 24 32 13 17 - - -
25/03:30pm - - - - - N 19 30 10 16 - - -
25/03:00pm - - - - - N 13 17 7 9 - - -
25/02:30pm - - - - - N 13 19 7 10 - - -
25/02:00pm - - - - - N 17 24 9 13 - - -
25/01:30pm - - - - - N 19 28 10 15 - - -
25/01:00pm - - - - - N 22 32 12 17 - - -
25/12:30pm - - - - - NNW 17 33 9 18 - - -
25/12:00pm - - - - - NNW 17 26 9 14 - - -
25/11:30am - - - - - N 20 28 11 15 - - -
25/11:00am - - - - - NNW 19 30 10 16 - - -
25/10:30am - - - - - N 19 30 10 16 - - -
25/10:00am - - - - - NNW 17 24 9 13 - - -
25/09:30am - - - - - NNW 19 30 10 16 - - -
25/09:00am - - - - - NNW 20 30 11 16 - - -
25/08:30am - - - - - NNW 13 19 7 10 - - -
25/08:00am - - - - - N 20 32 11 17 - - -
25/07:30am - - - - - NNW 20 30 11 16 - - -
25/07:00am - - - - - N 22 28 12 15 - - -
25/06:30am - - - - - N 19 26 10 14 - - -
25/06:00am - - - - - N 15 20 8 11 - - -
25/05:30am - - - - - N 11 17 6 9 - - -
25/05:00am - - - - - N 7 13 4 7 - - -
25/04:30am - - - - - N 9 13 5 7 - - -
25/04:00am - - - - - N 11 15 6 8 - - -
25/03:30am - - - - - N 13 15 7 8 - - -
25/03:00am - - - - - NNW 7 9 4 5 - - -
25/02:30am - - - - - NNW 7 9 4 5 - - -
25/02:00am - - - - - N 9 15 5 8 - - -
25/01:30am - - - - - N 9 13 5 7 - - -
25/01:00am - - - - - N 7 11 4 6 - - -
25/12:30am - - - - - NNW 11 15 6 8 - - -
25/12:00am - - - - - N 13 17 7 9 - - -
 
Date/Time
EST
Temp
°C
App
Temp
°C
Dew
Point
Rel
Hum
%
Delta-T
°C
Wind Press
QNH
hPa
Press
MSL
hPa
Rain
since 9 am
mm
Dir
 
Spd
km/h
Gust
km/h
Spd
kts
Gust
kts
24/11:30pm - - - - - N 17 20 9 11 - - -
24/11:00pm - - - - - N 15 17 8 9 - - -
24/10:30pm - - - - - N 13 17 7 9 - - -
24/10:00pm - - - - - N 13 15 7 8 - - -
24/09:30pm - - - - - N 13 15 7 8 - - -
24/09:00pm - - - - - N 13 13 7 7 - - -
24/08:30pm - - - - - N 13 13 7 7 - - -
24/08:00pm - - - - - N 11 13 6 7 - - -
24/07:30pm - - - - - N 13 15 7 8 - - -
24/07:00pm - - - - - N 13 15 7 8 - - -
24/06:30pm - - - - - N 11 11 6 6 - - -
24/06:00pm - - - - - N 11 13 6 7 - - -
24/05:30pm - - - - - N 9 13 5 7 - - -
24/05:00pm - - - - - N 9 11 5 6 - - -
24/04:30pm - - - - - N 6 7 3 4 - - -
24/04:00pm - - - - - N 11 15 6 8 - - -
24/03:30pm - - - - - N 13 19 7 10 - - -
24/03:00pm - - - - - N 13 17 7 9 - - -
24/02:30pm - - - - - NNE 13 17 7 9 - - -
24/02:00pm - - - - - NNE 15 22 8 12 - - -
24/01:30pm - - - - - N 15 22 8 12 - - -
24/01:00pm - - - - - N 13 17 7 9 - - -
24/12:30pm - - - - - N 17 20 9 11 - - -
24/12:00pm - - - - - N 17 26 9 14 - - -
24/11:30am - - - - - N 13 20 7 11 - - -
24/11:00am - - - - - N 11 19 6 10 - - -
24/10:30am - - - - - N 11 17 6 9 - - -
24/10:00am - - - - - N 13 17 7 9 - - -
24/09:30am - - - - - N 13 19 7 10 - - -
24/09:00am - - - - - N 11 15 6 8 - - -
24/08:30am - - - - - N 11 13 6 7 - - -
24/08:00am - - - - - NNW 15 17 8 9 - - -
24/07:30am - - - - - NNW 17 19 9 10 - - -
24/07:00am - - - - - NW 19 19 10 10 - - -
24/06:30am - - - - - NW 19 20 10 11 - - -
24/06:00am - - - - - NW 19 20 10 11 - - -
24/05:30am - - - - - NW 19 20 10 11 - - -
24/05:00am - - - - - NW 17 19 9 10 - - -
24/04:30am - - - - - NNW 15 19 8 10 - - -
24/04:00am - - - - - NW 19 20 10 11 - - -
24/03:30am - - - - - NNW 15 17 8 9 - - -
24/03:00am - - - - - NNW 15 17 8 9 - - -
24/02:30am - - - - - NNW 13 15 7 8 - - -
24/02:00am - - - - - NNW 13 15 7 8 - - -
24/01:30am - - - - - NNW 13 17 7 9 - - -
24/01:00am - - - - - NNW 15 17 8 9 - - -
24/12:30am - - - - - NNW 17 19 9 10 - - -
24/12:00am - - - - - NNW 15 17 8 9 - - -
 
Date/Time
EST
Temp
°C
App
Temp
°C
Dew
Point
Rel
Hum
%
Delta-T
°C
Wind Press
QNH
hPa
Press
MSL
hPa
Rain
since 9 am
mm
Dir
 
Spd
km/h
Gust
km/h
Spd
kts
Gust
kts
23/11:30pm - - - - - NW 17 19 9 10 - - -
23/11:00pm - - - - - NNW 15 17 8 9 - - -
23/10:30pm - - - - - NNW 15 17 8 9 - - -
23/10:00pm - - - - - NNW 13 17 7 9 - - -
23/09:30pm - - - - - NNW 13 15 7 8 - - -
23/09:00pm - - - - - NNW 13 13 7 7 - - -
23/08:30pm - - - - - NNW 11 15 6 8 - - -
23/08:00pm - - - - - NNW 11 13 6 7 - - -
23/07:30pm - - - - - NNW 11 13 6 7 - - -
23/07:00pm - - - - - N 9 13 5 7 - - -
23/06:30pm - - - - - NNE 7 13 4 7 - - -
23/06:00pm - - - - - NNE 7 13 4 7 - - -
23/05:30pm - - - - - NE 7 13 4 7 - - -
23/05:00pm - - - - - E 9 13 5 7 - - -

Other Formats:

Comma delimited format used in spreadsheet applications
http://www.bom.gov.au/fwo/IDN60801/IDN60801.95752.axf

JavaScript Object Notation format (JSON) in row-major order
http://www.bom.gov.au/fwo/IDN60801/IDN60801.95752.json